Location: Avully
(45.9633°N, 6.0228°E)
Time: 09:59:32
(UTC+00:00)

CZ-2D R/B - Pass Details

Date: 23 May 2024
Orbit: 791 x 843 km, 98.8° (Epoch: 14 June)

Event Time Altitude Azimuth Distance (km) Brightness Sun altitude
Rises 01:51:18 0° 13° (NNE) 3,412 6.7 -16.4°
Reaches altitude 10° 01:53:41 10° 12° (NNE) 2,470 5.7 -16.1°
Maximum altitude 01:59:10 79° 287° (WNW) 858 2.2 -15.6°
Enters shadow 02:02:43 22° 203° (SSW) 1,726 3.2 -15.2°
